CAPE
1001 1539 2081 1911 1346 1067 1070 889 776 750 390 398 347 176 51 176 283 624 626 621 787 126 10 11 3 0 0 0 0 0 0 0 0 25 78 153 256 11 1 0 0 0 3
1241 1472 1950 1945 1823 1460 1169 939 831 837 703 348 116 10 3 3 76 89 285 367 212 36 14 10 4 5 1 0 0 0 0 0 0 43 16 1 313 75 8 9 7 0 0
1322 1494 1693 2023 1829 1631 1057 748 853 824 693 551 369 15 2 0 8 13 52 130 139 14 6 10 4 4 0 0 0 6 10 8 3 0 0 0 0 244 114 201 347 58 5
1029 1275 1684 2017 1836 1638 920 584 570 507 361 844 677 86 1 2 6 10 24 36 19 11 10 7 2 0 0 0 0 16 87 121 61 0 0 0 0 7 9 40 67 80 126
722 1258 1733 1949 1803 1522 1014 682 371 178 173 555 851 359 1 0 6 10 17 14 9 9 7 7 4 1 0 0 0 77 68 69 0 0 0 0 0 0 1 1 3 10 11
622 1383 1829 1930 1885 1600 1259 831 254 113 63 309 779 316 2 0 4 10 13 14 8 9 5 7 5 1 0 0 59 36 0 28 0 0 0 0 0 0 0 0 0 3 3
1252 1500 1662 1965 1848 1723 1341 899 448 34 55 168 638 375 28 0 0 2 2 3 4 3 2 1 5 24 24 24 18 12 12 9 0 0 0 0 0 0 0 0 0 0 0
1361 1522 1563 1615 1710 1588 1237 962 667 383 174 337 790 852 91 0 0 0 0 0 1 1 0 6 5 30 40 27 15 4 7 0 0 0 0 0 20 0 0 0 0 0 0
1373 1334 1285 1098 949 869 835 722 678 688 532 715 1025 837 379 124 28 0 0 0 0 17 18 16 9 4 0 0 0 0 0 0 0 0 0 0 21 0 0 0 0 0 0
1165 944 747 503 278 33 25 235 501 521 592 616 587 431 110 65 62 75 46 57 34 26 25 20 12 0 0 0 0 0 0 0 0 0 0 0 0 0 0 0 0 0 0
984 749 455 176 8 0 0 152 162 289 503 352 359 93 39 0 0 0 0 30 55 47 34 29 17 0 0 0 0 0 0 0 0 0 0 19 0 0 0 0 0 0 0
885 655 456 181 21 0 0 2 10 65 97 106 165 4 0 0 0 0 0 9 39 33 35 34 28 16 0 0 0 0 0 0 0 0 0 0 0 0 25 13 0 0 0
1028 943 514 263 98 5 0 0 0 0 1 12 67 2 0 0 0 0 0 0 0 0 0 6 4 0 0 0 0 0 0 0 0 0 0 0 0 0 0 40 64 7 0
1018 886 733 329 269 87 0 0 0 0 0 0 0 0 0 0 0 0 0 0 0 0 0 0 0 0 0 0 0 0 0 0 0 0 0 0 0 0 0 0 42 82 55
725 907 761 532 474 303 143 21 0 0 0 0 0 0 0 0 0 0 0 0 0 0 0 0 0 0 0 0 0 0 0 0 0 0 0 0 0 0 0 0 1 50 82
820 898 716 734 568 448 366 126 219 12 0 0 0 0 0 0 0 0 0 0 0 0 0 0 0 0 0 0 0 0 0 0 0 0 0 0 0 0 0 0 0 2 75
824 652 648 592 715 495 471 367 240 130 31 0 8 9 4 0 0 0 0 0 0 0 0 0 0 0 0 0 0 0 0 0 0 0 0 0 0 0 0 0 3 17 51
714 672 682 965 700 613 579 525 367 392 82 80 43 17 9 7 7 0 0 0 0 0 0 0 0 0 0 0 0 0 0 0 0 0 0 0 0 0 0 27 70 63 61
735 592 559 654 608 650 539 604 503 437 116 116 118 108 35 22 21 7 0 0 0 0 0 0 0 0 0 1 1 4 2 1 0 0 0 0 0 1 0 12 17 17 31
506 580 597 585 706 710 594 432 492 395 312 239 272 232 147 111 61 27 13 0 0 0 0 0 0 0 4 5 7 4 0 0 0 0 0 0 0 0 3 2 4 0 0
119 483 649 658 450 385 455 473 356 450 448 419 330 495 416 355 364 284 262 160 122 108 51 24 9 7 4 1 8 7 4 0 0 0 0 0 0 0 0 0 0 0 0
1 173 464 702 415 465 387 414 360 448 402 379 315 13 47 46 78 89 128 148 86 70 42 7 20 9 10 16 29 37 18 1 0 0 0 0 0 0 0 0 0 0 0
0 24 268 415 612 585 498 215 52 49 55 270 182 0 0 0 0 0 0 0 0 0 0 0 0 9 14 13 28 52 31 5 0 0 0 0 0 0 0 0 0 0 0
0 0 19 80 153 253 285 157 146 158 175 35 84 0 0 0 0 0 0 0 0 0 0 0 0 0 0 0 0 0 0 10 22 6 0 0 0 0 0 0 0 0 0
0 0 0 0 0 0 0 61 58 0 0 0 0 0 0 0 0 0 0 0 0 0 0 0 0 0 0 0 0 0 0 0 0 19 5 0 0 0 0 0 0 0 0
0 0 0 0 0 0 0 0 0 0 0 0 0 0 0 0 0 0 0 0 0 0 0 0 0 0 0 0 0 0 0 0 0 3 8 2 3 0 0 0 0 0 0
CIN
-53 -0 -0 -0 -0 -0 -0 -0 -0 -5 -54 -58 -81 -146 -224 -116 -53 -1 -0 -0 -0 -69 -24 -34 -0 -0 -0 -0 -0 -0 -0 -0 -0 -3 -150 -111 -75 -0 -0 -0 -0 -0 -0
-75 -1 -0 -0 -0 -0 -0 -0 -0 -0 -0 -45 -170 -20 -0 -0 -147 -113 -34 -19 -52 -127 -0 -0 -0 -0 -0 -0 -0 -0 -0 -0 -0 -54 -17 -2 -63 -83 -0 -0 -0 -0 -0
-62 -4 -0 -0 -0 -0 -0 -0 -0 -0 -0 -4 -25 -15 -0 -0 -0 -0 -163 -94 -96 -0 -0 -0 -0 -0 -0 -0 -0 -15 -16 -23 -29 -0 -0 -0 -0 -76 -102 -53 -15 -0 -0
-116 -38 -0 -0 -0 -0 -2 -9 -7 -5 -22 -0 -0 -157 -0 -0 -0 -0 -0 -110 -1 -0 -0 -0 -0 -0 -0 -0 -0 -16 -105 -201 -25 -0 -0 -0 -0 -0 -0 -2 -1 -0 -40
-140 -47 -4 -0 -0 -0 -3 -12 -27 -66 -67 -5 -0 -30 -0 -0 -0 -0 -0 -0 -0 -0 -0 -0 -0 -0 -0 -0 -0 -36 -54 -58 -0 -0 -0 -0 -0 -0 -0 -0 -0 -0 -0
-136 -36 -8 -0 -0 -0 -1 -11 -56 -101 -120 -31 -6 -38 -261 -0 -0 -0 -0 -0 -0 -0 -0 -0 -0 -0 -0 -0 -48 -68 -1 -91 -0 -0 -0 -0 -0 -0 -0 -0 -0 -0 -0
-40 -16 -10 -0 -0 -0 -1 -12 -44 -170 -136 -70 -20 -41 -257 -0 -0 -0 -0 -0 -0 -0 -0 -0 -22 -93 -102 -107 -122 -142 -151 -143 -0 -0 -0 -0 -0 -0 -0 -0 -0 -0 -0
-32 -9 -5 -2 -0 -0 -3 -14 -32 -55 -82 -52 -23 -20 -170 -0 -0 -0 -0 -0 -0 -0 -0 -87 -67 -149 -135 -154 -174 -90 -142 -0 -0 -0 -0 -0 -108 -0 -0 -0 -0 -0 -0
-17 -10 -12 -19 -22 -27 -21 -34 -35 -34 -41 -32 -18 -32 -67 -146 -252 -0 -0 -0 -0 -206 -211 -215 -226 -164 -0 -0 -0 -0 -0 -0 -0 -0 -0 -0 -102 -0 -0 -0 -0 -0 -0
-23 -31 -54 -88 -128 -202 -195 -103 -55 -56 -41 -40 -45 -62 -152 -240 -253 -232 -157 -157 -193 -233 -246 -257 -264 -0 -0 -0 -0 -0 -0 -0 -0 -0 -0 -0 -0 -0 -0 -0 -0 -0 -0
-41 -49 -95 -165 -109 -0 -0 -141 -134 -88 -51 -69 -66 -182 -290 -0 -0 -0 -0 -222 -179 -204 -231 -254 -280 -0 -0 -0 -0 -0 -0 -0 -0 -0 -0 -85 -0 -0 -0 -0 -0 -0 -0
-48 -41 -83 -142 -247 -0 -0 -126 -294 -192 -158 -156 -133 -160 -0 -0 -0 -0 -0 -213 -226 -225 -221 -224 -233 -263 -0 -0 -0 -0 -0 -0 -0 -0 -0 -0 -0 -0 -67 -50 -0 -0 -0
-41 -51 -69 -132 -182 -39 -0 -0 -0 -0 -45 -130 -210 -59 -0 -0 -0 -0 -0 -0 -0 -0 -0 -132 -32 -0 -0 -0 -0 -0 -0 -0 -0 -0 -0 -0 -0 -0 -0 -41 -30 -38 -0
-60 -76 -30 -97 -97 -178 -0 -0 -0 -0 -0 -0 -0 -0 -0 -0 -0 -0 -0 -0 -0 -0 -0 -0 -0 -0 -0 -0 -0 -0 -0 -0 -0 -0 -0 -0 -0 -0 -0 -0 -21 -4 -17
-76 -84 -61 -70 -61 -102 -156 -252 -0 -0 -0 -0 -0 -0 -0 -0 -0 -0 -0 -0 -0 -0 -0 -0 -0 -0 -0 -0 -0 -0 -0 -0 -0 -0 -0 -0 -0 -0 -0 -0 -3 -8 -0
-80 -75 -76 -58 -68 -81 -58 -166 -108 -138 -0 -0 -0 -0 -0 -0 -0 -0 -0 -0 -0 -0 -0 -0 -0 -0 -0 -0 -0 -0 -0 -0 -0 -0 -0 -0 -0 -0 -0 -0 -0 -4 -3
-41 -68 -100 -82 -78 -71 -62 -58 -79 -117 -172 -0 -235 -226 -182 -0 -0 -0 -0 -0 -0 -0 -0 -0 -0 -0 -0 -0 -0 -0 -0 -0 -0 -0 -0 -0 -0 -0 -0 -6 -29 -23 -14
-67 -53 -57 -35 -84 -85 -69 -51 -50 -45 -114 -169 -199 -228 -227 -229 -231 -0 -0 -0 -0 -0 -0 -0 -0 -0 -0 -0 -0 -0 -0 -3 -14 -0 -0 -0 -0 -0 -0 -87 -37 -20 -12
-94 -94 -90 -46 -65 -58 -77 -58 -42 -41 -93 -123 -122 -146 -167 -189 -184 -193 -0 -0 -0 -0 -0 -0 -0 -0 -0 -12 -18 -43 -51 -46 -0 -0 -0 -0 -0 -43 -27 -121 -119 -67 -50
-119 -125 -91 -85 -58 -61 -80 -90 -69 -45 -51 -59 -77 -72 -101 -114 -147 -161 -171 -0 -0 -0 -0 -0 -0 -41 -41 -27 -30 -40 -0 -0 -0 -0 -0 -0 -0 -29 -47 -33 -72 -0 -0
-244 -147 -126 -74 -95 -96 -76 -63 -80 -36 -31 -56 -83 -52 -56 -46 -44 -56 -52 -66 -80 -66 -60 -59 -76 -42 -45 -72 -42 -40 -64 -76 -0 -0 -0 -0 -0 -0 -0 -0 -0 -0 -0
-120 -190 -129 -71 -112 -82 -122 -92 -95 -81 -91 -94 -107 -179 -160 -146 -135 -168 -113 -104 -125 -93 -88 -63 -66 -30 -30 -26 -7 -9 -9 -6 -0 -0 -0 -0 -0 -0 -0 -0 -0 -0 -0
-0 -276 -168 -150 -105 -101 -102 -204 -296 -276 -243 -141 -164 -11 -0 -0 -0 -0 -0 -0 -0 -0 -30 -14 -19 -27 -19 -33 -24 -6 -8 -5 -0 -0 -0 -0 -0 -0 -0 -0 -0 -0 -0
-0 -0 -331 -283 -282 -226 -194 -250 -220 -196 -161 -33 -285 -0 -0 -0 -0 -0 -0 -0 -0 -0 -0 -0 -0 -0 -1 -0 -0 -0 -3 -20 -5 -3 -0 -0 -0 -0 -0 -0 -0 -0 -0
-0 -0 -0 -0 -0 -0 -0 -349 -313 -0 -0 -0 -0 -0 -0 -0 -0 -0 -0 -0 -0 -0 -0 -0 -0 -0 -0 -0 -0 -0 -0 -0 -0 -6 -2 -0 -0 -0 -0 -0 -0 -0 -0
-0 -0 -0 -0 -0 -0 -0 -0 -0 -0 -0 -0 -0 -0 -0 -0 -0 -0 -0 -0 -0 -0 -0 -0 -0 -0 -0 -0 -0 -0 -0 -0 -0 -15 -12 -13 -49 -0 -0 -0 -0 -0 -0
Wind_Speed
13 15 19 19 19 17 15 15 15 15 13 16 16 18 16 16 17 19 20 20 20 19 20 19 18 17 17 16 15 15 15 14 15 15 14 11 12 15 16 15 11 7 14
16 16 20 19 17 16 16 16 15 14 14 16 18 18 17 16 17 17 17 19 18 18 18 18 17 16 15 14 14 13 12 11 10 10 11 13 14 16 15 13 11 10 13
17 16 15 19 17 17 18 16 14 15 14 16 16 18 17 16 16 17 17 17 19 17 17 16 16 14 13 12 11 10 9 7 3 2 5 5 8 15 14 16 15 14 14
16 14 14 18 18 18 18 17 15 15 14 15 15 18 17 17 16 16 17 17 17 16 15 14 14 12 11 10 10 9 9 8 12 17 6 7 8 13 13 15 16 15 14
14 13 14 19 19 18 17 16 15 14 14 14 15 18 17 17 16 16 16 16 15 15 14 13 14 12 10 9 9 9 12 12 12 11 7 6 5 10 13 13 11 12 13
12 12 15 19 18 17 16 15 15 14 14 14 15 18 18 17 17 16 15 14 14 13 13 13 13 11 10 9 8 9 11 14 10 7 6 7 5 12 13 12 12 11 10
13 12 13 18 17 17 16 14 13 14 14 14 13 18 18 17 17 16 14 14 13 12 12 13 12 11 10 9 8 8 10 11 4 6 6 5 5 11 12 12 12 12 11
14 13 12 15 15 16 15 13 12 13 13 12 12 17 17 16 16 15 14 13 13 12 11 11 11 10 9 7 6 7 8 9 6 6 5 5 7 10 10 11 11 11 11
14 12 9 11 12 14 12 11 11 12 11 11 10 16 16 14 14 13 13 13 12 11 10 9 9 8 7 5 4 5 6 7 3 3 5 3 6 7 8 9 10 10 10
12 11 10 8 8 7 6 12 10 10 10 9 9 13 11 11 11 11 8 9 10 10 9 8 7 6 4 3 1 3 6 7 4 1 4 3 7 5 6 7 7 8 8
12 12 10 8 7 7 7 8 9 9 10 9 8 12 10 5 6 9 7 8 8 8 7 7 6 5 4 3 4 5 5 2 4 2 3 7 6 4 4 4 4 5 6
13 11 12 10 8 8 7 6 5 6 4 5 6 6 4 5 5 7 7 10 8 7 6 6 6 6 4 2 3 6 2 4 2 3 3 8 6 4 3 5 3 3 3
11 10 9 10 10 8 7 4 3 3 3 4 7 6 5 4 4 3 3 3 3 6 3 4 4 3 4 3 4 4 4 4 2 0 4 8 7 5 5 4 6 5 3
11 9 8 9 6 10 6 6 5 5 4 4 5 6 5 3 5 4 3 4 4 3 4 4 3 4 5 6 6 5 4 3 2 2 4 10 8 7 6 7 7 7 7
5 8 10 10 7 7 8 6 6 6 5 6 7 5 5 5 5 5 4 4 4 3 4 5 4 4 5 5 4 5 5 4 5 3 3 9 9 8 8 8 8 8 8
7 7 6 7 9 8 6 7 4 6 7 5 5 5 5 4 4 3 4 4 4 4 4 4 4 3 3 2 3 3 5 5 5 5 4 4 10 11 10 10 9 9 10
4 4 7 7 7 7 6 4 3 4 4 6 5 6 6 5 4 5 3 2 3 3 4 2 2 1 2 2 3 4 4 6 5 6 4 4 4 9 11 11 10 10 11
9 10 8 7 6 7 6 5 4 2 4 6 5 5 7 6 6 4 3 3 4 3 3 2 2 2 3 3 3 5 4 4 5 4 4 4 3 4 7 14 10 9 9
9 7 8 5 7 8 6 5 4 3 4 5 5 6 8 7 7 5 4 4 4 3 3 3 3 3 3 4 4 3 3 3 4 3 5 5 4 4 3 4 6 4 5
5 8 8 7 8 9 5 4 2 2 4 2 4 6 9 7 9 6 4 4 3 2 2 2 4 3 2 2 3 3 4 4 4 5 6 4 4 2 4 6 4 3 6
5 5 9 8 7 5 3 4 2 4 3 2 2 4 6 3 5 5 3 2 2 1 2 2 1 2 1 0 2 3 3 5 5 6 4 4 3 5 5 5 4 4 5
7 5 5 8 6 4 3 3 3 2 2 1 4 5 5 6 5 5 4 3 3 1 2 2 2 1 2 2 3 2 3 4 3 3 3 2 4 3 5 6 6 6 5
8 9 8 7 9 7 6 5 3 3 3 2 3 3 3 6 6 6 5 3 2 1 2 2 2 3 3 2 3 3 3 2 2 3 3 3 3 3 3 5 6 7 8
9 8 8 7 7 5 7 6 5 4 4 2 3 4 3 6 6 5 5 4 3 2 2 1 2 1 1 2 3 2 2 1 2 3 2 2 3 3 3 5 6 7 6
8 9 8 8 7 6 6 7 6 5 3 3 4 7 5 5 5 5 5 4 3 2 2 3 2 2 0 1 2 1 2 2 3 4 3 3 3 3 4 5 5 5 7
6 6 6 8 8 8 5 5 7 9 8 6 5 4 4 3 3 4 5 4 3 3 2 2 2 2 2 3 2 3 3 3 2 2 3 4 3 3 4 4 4 5 5
Wind_Direction
147 148 143 140 135 134 134 120 116 110 106 101 100 90 85 81 81 84 92 93 90 93 92 88 86 85 86 84 84 84 83 81 83 82 73 51 71 73 70 69 64 57 58
142 147 145 140 140 139 125 118 119 112 106 101 96 93 87 86 86 88 88 94 98 93 91 88 88 89 88 87 85 88 90 91 98 91 46 46 60 77 70 64 70 65 61
138 146 143 142 139 131 123 121 118 117 114 111 105 96 91 92 91 94 93 91 91 94 93 90 92 91 89 85 87 84 80 79 84 132 62 43 49 73 67 61 59 72 63
139 138 138 139 134 128 126 124 120 118 119 118 109 103 100 100 101 101 100 101 96 99 94 92 95 94 92 85 78 68 48 34 57 77 74 60 57 60 57 52 55 69 58
137 132 137 135 133 130 129 126 125 127 125 116 119 110 105 105 106 107 105 105 106 101 98 97 99 97 92 85 72 52 30 18 87 81 76 66 52 63 62 59 56 52 53
134 128 134 134 133 132 130 126 126 130 130 123 121 117 110 109 107 109 111 108 108 104 102 97 97 94 87 78 68 47 30 49 84 85 78 68 61 68 65 62 59 55 55
126 127 130 130 135 137 132 129 127 132 136 133 128 121 114 115 114 116 118 117 116 111 104 99 97 93 85 70 50 36 29 29 68 98 92 82 65 68 66 64 61 59 56
127 128 130 126 130 136 132 131 131 135 139 136 134 128 121 122 123 124 125 125 123 118 110 104 101 97 92 76 45 15 22 22 56 101 105 99 81 72 68 65 61 61 58
125 122 122 124 121 116 122 126 134 136 141 142 134 128 131 132 129 129 130 128 127 123 119 114 109 103 100 90 55 4 351 3 24 150 127 121 102 80 72 67 63 61 60
127 127 126 123 121 116 123 125 124 126 133 136 131 124 130 132 130 128 128 128 132 131 131 129 126 125 127 132 148 306 315 344 337 42 131 158 121 103 86 74 65 66 64
135 137 134 134 132 123 123 133 128 143 144 136 128 141 143 141 140 137 144 142 145 146 150 150 154 162 176 216 254 269 294 307 313 157 161 160 144 146 133 105 85 77 75
140 149 148 154 150 146 137 137 136 131 138 151 156 166 155 151 150 154 157 161 165 170 179 188 192 207 207 220 262 275 264 273 293 175 181 175 173 176 194 184 172 133 106
148 147 154 159 159 149 142 151 158 154 156 169 174 175 183 158 164 161 161 178 179 193 199 213 234 233 227 215 244 234 251 247 242 123 201 191 197 200 218 240 213 205 181
147 155 154 153 149 148 155 164 174 176 180 182 209 179 167 167 159 164 181 189 196 198 210 216 220 226 240 242 210 219 231 223 247 216 205 202 205 217 228 239 248 228 217
174 156 159 154 163 154 166 175 176 198 187 191 194 185 165 164 174 163 194 193 203 207 202 215 224 222 222 233 244 230 243 242 245 247 211 216 209 217 232 242 254 260 251
148 157 158 164 173 162 188 164 188 195 180 165 158 160 155 160 171 173 170 177 194 191 205 196 201 234 240 233 266 262 253 248 243 237 225 220 216 213 220 233 245 258 264
141 199 171 192 170 164 186 198 170 203 153 151 164 162 164 143 167 163 165 202 209 203 217 227 262 185 247 266 264 268 266 257 248 242 229 221 228 235 220 229 235 245 255
160 192 198 192 178 173 179 197 202 157 174 155 165 168 171 172 169 168 177 198 217 211 201 203 222 278 267 258 260 260 264 271 255 258 272 265 231 232 218 230 232 244 260
177 173 185 187 180 189 198 190 206 195 181 172 169 180 175 179 176 168 191 219 211 193 199 209 238 199 235 254 247 250 282 309 299 287 287 272 240 237 234 213 228 273 288
200 170 165 182 181 184 178 188 215 176 173 217 178 181 184 180 182 180 184 197 191 184 233 234 225 250 246 292 299 304 293 285 284 276 265 258 247 296 121 110 88 43 20
182 176 168 173 188 165 159 158 160 193 181 150 57 92 95 113 151 170 197 176 62 229 231 204 206 262 308 46 341 297 292 270 272 263 256 240 256 116 123 112 107 81 65
168 180 214 183 188 190 170 150 164 184 144 140 132 85 93 102 86 103 111 118 82 51 14 29 50 335 263 222 249 258 286 320 304 321 306 210 123 140 127 127 114 101 91
184 174 194 190 195 181 187 128 97 66 38 82 113 117 81 92 75 66 59 61 59 22 302 314 257 221 264 285 286 244 289 250 311 338 6 27 105 131 161 119 107 97 91
194 178 169 167 176 170 164 136 158 156 163 201 128 108 89 82 76 70 68 58 52 35 34 355 14 3 56 286 330 281 226 195 269 302 341 351 38 59 55 81 81 87 88
176 181 166 145 139 163 154 155 147 142 139 126 112 119 111 87 89 81 69 60 53 43 36 31 20 33 71 220 197 308 313 274 217 226 259 293 32 64 59 70 93 84 79
146 141 153 158 155 150 174 171 166 149 149 137 135 132 133 125 113 96 88 77 67 61 30 358 334 311 251 227 234 249 233 241 287 230 252 252 208 105 81 64 70 70 68